Location: Lombard
(41.8800°N, 88.0080°W)
Time: 02:05:48
(UTC-05:00)

Vanguard 3 - Pass Details

Date: 01 February 2023
Orbit: 508 x 3249 km, 33.4° (Epoch: 31 March)

Event Time Altitude Azimuth Distance (km) Brightness Sun altitude
Rises 17:35:16 0° 209° (SSW) 3,938 11.5 -5.8°
Reaches altitude 10° 17:38:00 10° 197° (SSW) 3,301 10.8 -6.3°
Maximum altitude 17:45:14 29° 141° (SE) 2,889 9.8 -7.5°
Drops below altitude 10° 17:56:21 10° 90° (E) 5,199 10.6 -9.5°
Enters shadow 17:56:47 - 89° (E) 5,307 10.7 -9.6°
